Regional Weather Roundup
Issued by NWS Northern Indiana

Home | Current Version | Previous Version | Graphics & Text | Print | Product List | Glossary On
Versions: 1 2 3 4 5 6 7 8 9 10 11 12 13 14 15 16 17 18 19 20 21 22 23 24 25 26 27 28 29 30 31 32 33 34 35 36 37 38 39 40 41 42 43 44 45 46 47 48 49 50
000
ASUS43 KIWX 161000
RWRIWX

KIWX WEATHER ROUNDUP
NATIONAL WEATHER SERVICE NORTHERN INDIANA
500 AM EST MON JAN 16 2017

NOTE: "FAIR" INDICATES FEW OR NO CLOUDS BELOW 12,000 FEET WITH NO
SIGNIFICANT WEATHER AND/OR OBSTRUCTIONS TO VISIBILITY.

* THESE STATIONS ARE NOT UNDER NWS QUALITY CONTROL. THEY ALSO MAY NOT
  REPORT WEATHER SUCH AS PRECIPITATION OR FOG.

INZ001>027-161100-
NORTHERN INDIANA

CITY           SKY/WX    TMP DP  RH WIND       PRES   REMARKS
KNOX*          CLOUDY    32  14  47 CALM      30.29R
SOUTH BEND     MIX PCPN  30  25  81 E5        30.28F WCI  25
GOSHEN         CLOUDY    31  25  78 E3        30.29S HAZE
FORT WAYNE     CLOUDY    31  28  89 SE5       30.29F FOG     WCI  26
PERU/GRISSOM   CLOUDY    33  32  99 SE7       30.25F WCI  26

$$
INZ028>050-161100-
CENTRAL INDIANA

CITY           SKY/WX    TMP DP  RH WIND       PRES   REMARKS
LAFAYETTE      CLOUDY    34  31  88 E6        30.26F FOG     WCI  29
KOKOMO*        CLOUDY    33  31  92 E8        30.28F FOG     WCI  26
MUNCIE*        CLOUDY    34  32  92 SE5       30.27F FOG     WCI  30
INDIANAPOLIS   CLOUDY    36  33  89 E8        30.25F FOG

$$
MIZ043>046-050>051-056>058-064>065-071>073-077>080-161100-
SOUTHWEST LOWER MICHIGAN

CITY           SKY/WX    TMP DP  RH WIND       PRES   REMARKS
BATTLE CREEK   CLOUDY    22  21  96 CALM      30.29F
BENTON HARBOR  CLOUDY    30  24  78 SE5       30.28F WCI  25
COLDWATER*     CLOUDY    28  25  89 CALM      30.29F
HILLSDALE*     CLOUDY    27  23  86 CALM      30.28F FOG
HOLLAND        CLOUDY    24  22  91 SE3       30.30S
GRAND RAPIDS   PTCLDY    22  18  85 CALM      30.30F FOG
KALAMAZOO      CLOUDY    25  21  85 CALM      30.30S FOG
STURGIS*       CLOUDY    29  25  84 SE5       30.28F WCI  24
THREE RIVERS*  CLOUDY    28  24  84 CALM      30.29F

$$
OHZ001>008-015>018-024>025-161100-
NORTHWEST OHIO

CITY           SKY/WX    TMP DP  RH WIND       PRES   REMARKS
DEFIANCE       CLOUDY    29  24  82 E3        30.32F HAZE
FINDLAY        CLOUDY    31  25  78 E3        30.30F HAZE
TOLEDO EXPRESS CLOUDY    23  23 100 CALM      30.32F FOG
TOLEDO METCALF CLOUDY    25  24  96 E5        30.34F FOG     WCI  19
LIMA           CLOUDY    32  31  96 SE5       30.29F FOG     WCI  27

$$
AND FOR LAKE MICHIGAN COASTAL AND OPEN LAKE BUOY OBSERVATIONS

STATION/POSITION TEMP    WIND        PRES    VSBY  WAVE
                 AIR SEA DIR/SP/G                  HT/PER
                 (F)     (DEG/KT/KT) (MB)    (MI)  (FT/S)
CALUMET HARBOR    33     150/  2/  5 1024.6F
MICHIGAN CITY     32     130/  4/  4   N/A
BURNS HARBOR      33     180/  3/  6 1026.1S
SAINT JOSEPH      30      CALM  /  2 1026.4

$$
&&




USA.gov is the U.S. government's official web portal to all federal, state and local government web resources and services.